Tracking 19245 objects as of 14-Aug-2018
HD Live streaming from Space Station
objects crossing your sky now

FENGYUN 1C DEB

Track FENGYUN 1C DEB now!
10-day predictions


NORAD ID: 30119
Int'l Code: 1999-025RY
Perigee: 757.0 km
Apogee: 978.3 km
Inclination: 98.0 °
Period: 102.2 minutes
Semi major axis: 7238 km
RCS: 0.038 m2 (small)
Launch date: May 10, 1999
Source: People's Republic of China (PRC)
Launch site: Taiyaun Space Center, China (TSC)

Note: This is SATELLITE DEBRIS
aabbcc
Your satellite tracking list
Your tracking list is empty




NASA's NSSDC Master Catalog

Two Line Element Set (TLE):
1 30119U 99025RY  18224.40494772 +.00000371 +00000-0 +20823-3 0  9992
2 30119 097.9736 117.5878 0152860 169.4268 254.9615 14.09656235593383
Source of the keplerian elements: AFSPC